DW4063 Weather Reports


time (UTC)temp
F
wind
direction
speed
knots
gust
knots
rain 1hr
in
rain 24hr
in
rain mn
in
humidity
%
barometer
mb
20210723144755 80 284 0.0 6.1 0.00 0.00 0.00 80 1017.4
20210723143115 80 284 0.0 3.5 0.00 0.00 0.00 81 1017.5
20210723141600 78 284 0.0 4.3 0.00 0.00 0.00 84 1017.4
20210723140106 77 284 0.9 3.5 0.00 0.00 0.00 86 1017.3
20210723134551 76 284 0.0 1.7 0.00 0.00 0.00 90 1017.3
20210723133042 75 284 0.0 1.7 0.00 0.00 0.00 91 1017.3
20210723131539 74 284 0.0 0.0 0.00 0.00 0.00 92 1017.3
20210723130053 74 284 0.0 0.0 0.00 0.00 0.00 94 1017.4
20210723124606 73 284 0.0 1.7 0.00 0.00 0.00 95 1017.3
20210723123101 73 284 0.0 2.6 0.00 0.00 0.00 95 1017.3
20210723121557 72 284 0.0 0.0 0.00 0.00 0.00 96 1017.3
20210723120050 71 284 0.0 0.0 0.00 0.00 0.00 95 1017.3
20210723114611 71 284 0.0 0.0 0.00 0.00 0.00 95 1017.6
20210723113027 71 284 0.0 0.0 0.00 0.00 0.00 95 1017.6
20210723111541 71 284 0.0 0.0 0.00 0.00 0.00 94 1017.4
20210723110059 72 284 0.0 0.0 0.00 0.00 0.00 94 1017.3
20210723104527 72 284 0.0 0.0 0.00 0.00 0.00 94 1017.1
20210723103043 72 284 0.0 0.0 0.00 0.00 0.00 93 1016.9
20210723101517 72 284 0.0 0.0 0.00 0.00 0.00 93 1016.7
20210723100059 73 284 0.0 0.0 0.00 0.00 0.00 93 1016.6
20210723094522 73 284 0.0 0.0 0.00 0.00 0.00 93 1016.6
20210723093041 73 284 0.0 0.9 0.00 0.00 0.00 92 1016.8
20210723091517 74 284 0.0 0.9 0.00 0.00 0.00 92 1016.6
20210723090027 74 284 0.0 1.7 0.00 0.00 0.00 91 1016.7
20210723084521 74 284 0.0 0.0 0.00 0.00 0.00 91 1016.9
20210723083006 75 284 0.0 0.9 0.00 0.00 0.00 90 1016.8
20210723081504 75 284 0.0 1.7 0.00 0.00 0.00 90 1016.8
20210723080001 75 284 0.0 2.6 0.00 0.00 0.00 89 1016.9
20210723073134 76 284 0.0 4.3 0.00 0.00 0.00 89 1016.9
20210723071733 76 285 0.0 4.3 0.00 0.00 0.00 89 1016.9
20210723070218 76 290 0.0 6.1 0.00 0.00 0.00 89 1016.9
20210723064712 76 296 0.0 3.5 0.00 0.00 0.00 89 1017.0
20210723063157 76 296 0.0 0.0 0.00 0.00 0.00 89 1017.2
20210723061705 76 296 0.0 0.0 0.00 0.00 0.00 89 1017.3
20210723060347 76 296 0.0 0.0 0.00 0.00 0.00 89 1017.4
20210723054655 76 296 0.0 0.0 0.00 0.00 0.00 88 1017.4
20210723053225 76 296 0.0 0.0 0.00 0.00 0.00 88 1017.5
20210723051612 77 296 0.0 0.0 0.00 0.00 0.00 87 1017.5
20210723050253 77 296 0.0 0.0 0.00 0.00 0.00 87 1017.4
20210723044657 76 296 0.0 0.0 0.00 0.00 0.00 88 1017.7
20210723043131 76 296 0.0 0.0 0.00 0.00 0.00 88 1017.6
20210723041640 76 297 0.0 0.0 0.00 0.00 0.00 89 1017.4
20210723040105 76 297 0.0 0.0 0.00 0.00 0.00 89 1017.3
20210723034632 75 297 0.0 0.0 0.00 0.00 0.00 89 1017.3
20210723033106 75 297 0.0 0.0 0.00 0.00 0.00 88 1017.3
20210723031637 75 297 0.0 0.0 0.00 0.00 0.00 88 1017.1
20210723030131 75 297 0.0 0.0 0.00 0.00 0.00 87 1017.3
20210723024600 75 297 0.0 0.0 0.00 0.00 0.00 87 1017.3
20210723023137 75 297 0.0 0.0 0.00 0.00 0.00 86 1017.0
20210723021730 75 297 0.0 0.0 0.00 0.00 0.00 86 1017.0
20210723020141 76 297 0.0 0.0 0.00 0.00 0.00 84 1016.9
20210723014655 77 297 0.0 0.0 0.00 0.00 0.00 82 1016.9
20210723013057 78 297 0.0 0.0 0.00 0.00 0.00 80 1016.9
20210723011616 79 297 0.0 0.0 0.00 0.00 0.00 78 1017.0
20210723010119 80 297 0.0 0.0 0.00 0.00 0.00 77 1017.0
20210723004547 80 297 0.0 0.0 0.00 0.00 0.00 76 1016.9
20210723003159 81 297 0.0 0.0 0.00 0.00 0.00 76 1017.0
20210723001622 81 297 0.0 0.0 0.00 0.00 0.00 77 1017.0
20210723000133 82 297 0.0 0.0 0.00 0.00 0.00 75 1017.0
20210722234612 82 297 0.0 0.0 0.00 0.00 0.00 73 1017.0
20210722233048 82 297 0.0 0.0 0.00 0.00 0.00 75 1017.0
20210722231541 82 297 0.0 0.0 0.00 0.00 0.00 77 1017.1
20210722230122 83 297 0.0 0.0 0.00 0.00 0.00 76 1017.0
20210722224604 83 297 0.0 0.0 0.00 0.00 0.00 73 1017.2
20210722223116 83 297 0.0 0.0 0.00 0.00 0.00 74 1017.2
20210722221548 84 297 0.0 0.0 0.00 0.00 0.00 72 1017.4
20210722220109 84 297 0.0 0.0 0.00 0.00 0.00 67 1017.4
20210722214639 84 297 0.0 0.0 0.00 0.00 0.00 71 1017.5
20210722213056 83 297 0.0 0.9 0.00 0.00 0.00 71 1017.6
20210722211607 84 297 0.0 0.0 0.00 0.00 0.00 73 1017.5
20210722210120 84 297 0.0 3.5 0.00 0.00 0.00 69 1017.5
20210722204605 84 298 0.0 3.5 0.00 0.00 0.00 70 1017.7
20210722203052 83 298 0.0 3.5 0.00 0.00 0.00 71 1017.8
20210722201528 83 297 0.0 4.3 0.00 0.00 0.00 72 1017.8
20210722200105 82 297 0.0 7.8 0.00 0.00 0.00 76 1018.1
20210722194517 82 298 0.0 4.3 0.00 0.00 0.00 74 1018.1
20210722193036 82 297 0.0 1.7 0.00 0.00 0.00 76 1018.0
20210722191519 82 297 0.0 0.0 0.00 0.00 0.00 76 1018.1
20210722190038 83 298 0.0 1.7 0.00 0.00 0.00 75 1018.1
20210722184538 82 300 0.0 4.3 0.00 0.00 0.00 77 1018.3
20210722183017 82 302 0.0 1.7 0.00 0.00 0.00 75 1018.4
20210722181548 81 302 0.0 3.5 0.00 0.00 0.00 75 1018.6
20210722180006 81 302 0.0 5.2 0.00 0.00 0.00 74 1018.7
20210722174511 81 316 0.0 4.3 0.00 0.00 0.00 74 1018.9
20210722173006 82 316 0.0 5.2 0.00 0.00 0.00 75 1019.1
20210722171618 81 316 0.0 3.5 0.00 0.00 0.00 74 1019.3
20210722170218 79 316 0.0 3.5 0.00 0.00 0.00 75 1019.4
20210722164604 78 316 0.0 0.0 0.00 0.00 0.00 77 1019.7
20210722163146 77 316 0.0 0.9 0.00 0.00 0.00 76 1019.8
20210722161706 76 316 0.0 2.6 0.00 0.00 0.00 78 1019.9
20210722160133 75 316 0.0 0.0 0.00 0.00 0.00 80 1019.9
20210722154652 75 316 0.0 0.0 0.00 0.00 0.00 80 1020.0
20210722153057 74 316 0.0 0.0 0.00 0.00 0.00 80 1020.0
20210722151706 74 316 0.0 0.9 0.00 0.00 0.00 79 1020.0